BEIDOU 6

Satellite information

Favourite Embed

Satellite Type and Status

PAYLOADIN ORBIT

Key statistics

Satellite BEIDOU 6 at a glance.

Uptime

5365

Days in orbit

Revolutions

≈ 1.0

Per day

Orbit

GEO

Geostationary Orbit

Inclination

2.8

Latest

Satellite identification and parameters

Extended collection of information and parameters for BEIDOU 6.

Object identification

Identified? True

Debris? False

Object name: BEIDOU 6

International designator: 2010-057A

Object number (NORAD): 37210

Object ID (CCSDS): 37210

Country: PEOPLES REPUBLIC OF CHINA (PRC)

Current information (Y/N): Y

RCS size: LARGE

Orbital parameters

Period: 1436.106 minutes

Inclination: 2.7919 deg

SMA: 42164.902 km

Apoapsis: 35806.905 km

Periapsis: 35766.629 km

RAAN: 70.439 deg

Eccentricy: 0.0004776

Argument of periapsis: 170.6142 deg

Mean anomaly: 120.7398 deg

Mean motion: 1.00271179 rev/day

Mean motion (dot): -0.000001 rev/day2

B* drag term: 0.0 1/REarth

Two-line elements (TLE)

Creation date: July 9, 2025, 2:22 a.m.

Reference frame: TEME

Reference center: EARTH

Epoch: July 8, 2025, 6:19 p.m. UTC

TLE line 0: 0 BEIDOU 6

TLE line 1: 1 37210U 10057A 25189.76349116 -.00000100 00000-0 00000-0 0 9990

TLE line 2: 2 37210 2.7919 70.4390 0004776 170.6142 120.7398 1.00271179 53849

Live tracking on map

Real-time ground track for satellite BEIDOU 6.

In-orbit conjunctions

There are no conjunctions computed for BEIDOU 6, at the moment. Check back to stay up to date, as we update our databases every day.

Go to all conjunctions

Associated space launch

BEIDOU 6 was lifted into orbit during the mission ‘Long March 3C | Compass-G4’, on board a Long March 3 space rocket.

The launch took place on Oct. 31, 2010, 4:26 p.m. from Launch Complex 2 (LC-2).

For more information about the launch, click the button.

Launch to space Long March 3C | Compass-G4
Long March 3C | Compass-G4

Agency: N/A

Status: Launch Successful

Launch date: Oct. 31, 2010, 4:26 p.m. UTC

Rocket: Long March 3

Launch pad: Launch Complex 2 (LC-2)

Location: Xichang Satellite Launch Center, People's Republic of China

...

Latest news about this satellite

There are no fresh news available about this satellite. Check back as we update our databases every day.


Newsletter sign-up

Weekly statistics, charts and insights to help you stay on top of the space industry.